Weather History for KMFI - October, 2011

Change the Weather History Date:

Sunday, October 30, 2011

  Actual Average Record
Temperature  
Mean Temperature 38 °F -  
Max Temperature 44 °F 52 °F 76 °F (1950)
Min Temperature 33 °F 32 °F 1 °F (1925)
Degree Days  
Heating Degree Days 26    
Moisture  
Dew Point 34 °F    
Average Humidity 83    
Maximum Humidity 93    
Minimum Humidity 53    
Precipitation  
Precipitation 0.04 in - - ()
Sea Level Pressure  
Sea Level Pressure 29.89 in    
Wind  
Wind Speed 5 mph (SE)    
Max Wind Speed 13 mph    
Max Gust Speed -    
Visibility 7 miles    
Events Rain    
Averages and records for this station are not official NWS values.
T = Trace of Precipitation, MM = Missing Value Source: NWS Daily Summary

Daily Weather History Graph

Daily Weather History Graph

Search for Another Location

Airport or City:

Trip Planner

Search our weather history database for the weather conditions in past years. The results will help you decide how hot, cold, wet, or windy it might be!

Date:

Astronomy

Oct. 30, 2011 Rise Set
Actual Time 7:35 AM CDT 5:52 PM CDT
Civil Twilight 7:05 AM CDT 6:22 PM CDT
Nautical Twilight 6:30 AM CDT 6:57 PM CDT
Astronomical Twilight 5:56 AM CDT 7:31 PM CDT
Moon 12:02 PM CDT (10/30) 9:14 PM CDT (10/30)
Length of Visible Light 11h 17m
Length of Day
10h 17m
Waxing Crescent, 20% of the Moon is Illuminated
Oct 30
Waxing Crescent
Nov 2
First Quarter
Nov 10
Full
Nov 18
Last Quarter
Nov 25
New

Hourly Weather History & Observations

Time (CDT) Temp. Windchill Dew Point Humidity Pressure Visibility Wind Dir Wind Speed Gust Speed Precip Events Conditions
12:54 AM 35.1 °F - 25.0 °F 67% 30.05 in 10.0 mi Calm Calm - N/A   Clear
1:54 AM 34.0 °F 29.8 °F 25.0 °F 70% 30.04 in 10.0 mi SE 4.6 mph - N/A   Partly Cloudy
2:54 AM 33.1 °F 27.7 °F 26.1 °F 75% 30.03 in 10.0 mi SE 5.8 mph - N/A   Overcast
3:54 AM 37.0 °F 31.6 °F 26.1 °F 65% 30.01 in 10.0 mi SSE 6.9 mph - N/A   Overcast
4:54 AM 37.9 °F 32.1 °F 25.0 °F 60% 29.99 in 10.0 mi SE 8.1 mph - N/A   Overcast
5:54 AM 39.0 °F 33.4 °F 25.0 °F 57% 29.98 in 10.0 mi SE 8.1 mph - N/A   Overcast
7:54 AM 39.0 °F 32.8 °F 27.0 °F 62% 29.96 in 10.0 mi ESE 9.2 mph - 0.00 in   Overcast
8:54 AM 39.9 °F 32.9 °F 27.0 °F 60% 29.95 in 10.0 mi ESE 11.5 mph - N/A   Overcast
9:54 AM 42.1 °F 35.7 °F 27.0 °F 55% 29.94 in 10.0 mi SE 11.5 mph - N/A   Overcast
10:54 AM 43.0 °F 36.4 °F 27.0 °F 53% 29.91 in 10.0 mi SSE 12.7 mph - N/A   Overcast
11:54 AM 44.1 °F 38.6 °F 28.9 °F 55% 29.88 in 10.0 mi SE 10.4 mph - 0.00 in Rain Light Rain
12:54 PM 39.9 °F 32.9 °F 33.1 °F 77% 29.86 in 4.0 mi SE 11.5 mph - 0.00 in Rain Light Rain
1:54 PM 39.0 °F 31.8 °F 35.1 °F 86% 29.86 in 7.0 mi ESE 11.5 mph - 0.02 in Rain Light Rain
2:54 PM 39.0 °F 32.3 °F 37.0 °F 93% 29.85 in 4.0 mi ESE 10.4 mph - 0.00 in Rain Light Rain
3:54 PM 39.0 °F 34.8 °F 37.0 °F 93% 29.84 in 4.0 mi ESE 5.8 mph - 0.02 in Rain Light Rain
4:12 PM 39.2 °F 35.0 °F 37.4 °F 93% 29.81 in 6.0 mi ESE 5.8 mph - 0.00 in Rain Light Rain
4:21 PM 39.2 °F 35.0 °F 37.4 °F 93% 29.81 in 5.0 mi ESE 5.8 mph - 0.00 in Rain Light Rain
4:28 PM 39.2 °F 35.9 °F 37.4 °F 93% 29.81 in 5.0 mi ESE 4.6 mph - 0.00 in Rain Light Rain
4:44 PM 39.2 °F 35.9 °F 37.4 °F 93% 29.81 in 6.0 mi SE 4.6 mph - 0.00 in Rain Light Rain
4:54 PM 39.9 °F 37.8 °F 37.0 °F 89% 29.85 in 6.0 mi SSE 3.5 mph - 0.00 in Rain Light Rain
5:17 PM 39.2 °F - 37.4 °F 93% 29.81 in 5.0 mi Calm Calm - 0.00 in Rain Light Rain
5:28 PM 39.2 °F - 37.4 °F 93% 29.81 in 4.0 mi Calm Calm - 0.00 in Rain Light Rain
6:07 PM 39.2 °F - 37.4 °F 93% 29.82 in 7.0 mi Calm Calm - 0.00 in Rain Light Rain
6:16 PM 39.2 °F - 37.4 °F 93% 29.82 in 7.0 mi Calm Calm - 0.00 in   Overcast
6:34 PM 39.2 °F - 37.4 °F 93% 29.83 in 5.0 mi Calm Calm - 0.00 in Rain Light Rain
6:51 PM 39.2 °F - 37.4 °F 93% 29.83 in 5.0 mi Calm Calm - 0.00 in Rain Light Rain
6:54 PM 39.9 °F - 37.9 °F 93% 29.87 in 5.0 mi Calm Calm - 0.00 in Rain Light Rain
7:54 PM 39.9 °F - 37.9 °F 93% 29.88 in 5.0 mi Calm Calm - 0.00 in Rain Light Rain
8:29 PM 39.2 °F - 37.4 °F 93% 29.84 in 3.0 mi Calm Calm - 0.00 in Rain Light Rain
8:36 PM 39.2 °F 37.0 °F 37.4 °F 93% 29.84 in 3.0 mi NW 3.5 mph - 0.00 in Rain Light Rain
8:54 PM 39.0 °F 35.7 °F 37.0 °F 93% 29.88 in 5.0 mi West 4.6 mph - 0.00 in Rain Light Rain
9:51 PM 39.2 °F 35.9 °F 37.4 °F 93% 29.86 in 6.0 mi WNW 4.6 mph - 0.00 in   Overcast
9:54 PM 39.0 °F 34.8 °F 37.0 °F 93% 29.89 in 7.0 mi WNW 5.8 mph - 0.00 in   Overcast
10:25 PM 39.2 °F 35.9 °F 37.4 °F 93% 29.87 in 6.0 mi WNW 4.6 mph - N/A   Overcast
10:36 PM 39.2 °F 37.0 °F 37.4 °F 93% 29.87 in 5.0 mi WNW 3.5 mph - N/A   Overcast
10:54 PM 39.0 °F 36.8 °F 37.0 °F 93% 29.91 in 5.0 mi WNW 3.5 mph - N/A   Overcast
11:45 PM 37.4 °F 32.8 °F 35.6 °F 93% 29.87 in 7.0 mi WNW 5.8 mph - N/A   Overcast
11:54 PM 37.9 °F 34.4 °F 36.0 °F 93% 29.91 in 7.0 mi WNW 4.6 mph - N/A   Overcast